• In Uzbekistan
  • List of Countries
  • For 7 days
  • Water Temperature
  • Satellite Maps
  • Weather Map
  • Weather Widgets
  • user-avatar
    Login

    Hourly Weather Borzhomi

    Today, 15 October, Monday

    Time Temperature Precipitation Wind Pressure Humidity
    00:00 +11°C° 0 mm 1 mps 670 mmHg 76%
    01:00 +11°C° 0 mm 1 mps 670 mmHg 76%
    02:00 +11°C° 0 mm 1 mps 670 mmHg 76%
    03:00 +11°C° 0 mm 1 mps 670 mmHg 76%
    04:00 +11°C° 0 mm 1 mps 670 mmHg 75%
    05:00 +11°C° 0 mm 1 mps 669 mmHg 75%
    06:00 +10°C° 0 mm 1 mps 669 mmHg 75%
    07:00 +13°C° 0 mm 1 mps 670 mmHg 66%
    08:00 +15°C° 0 mm 1 mps 671 mmHg 57%
    09:00 +17°C° 0 mm 0 mps 671 mmHg 46%
    10:00 +20°C° 0 mm 1 mps 671 mmHg 43%
    11:00 +21°C° 0 mm 1 mps 672 mmHg 39%
    12:00 +22°C° 0 mm 1 mps 672 mmHg 35%
    13:00 +22°C° 0 mm 1 mps 672 mmHg 36%
    14:00 +22°C° 0 mm 1 mps 671 mmHg 36%
    15:00 +22°C° 0 mm 1 mps 671 mmHg 37%
    16:00 +20°C° 0 mm 1 mps 671 mmHg 45%
    17:00 +16°C° 0 mm 1 mps 671 mmHg 54%
    18:00 +14°C° 0 mm 1 mps 670 mmHg 63%
    19:00 +14°C° 0 mm 1 mps 670 mmHg 64%
    20:00 +13°C° 0 mm 1 mps 671 mmHg 66%
    21:00 +13°C° 0 mm 1 mps 671 mmHg 67%
    22:00 +12°C° 0 mm 2 mps 671 mmHg 68%
    23:00 +12°C° 0 mm 2 mps 671 mmHg 70%

    Tomorrow, 16 October, Tuesday

    Time Temperature Precipitation Wind Pressure Humidity
    00:00 +12°C° 0 mm 2 mps 671 mmHg 71%
    01:00 +10°C° 0 mm 2 mps 671 mmHg 72%
    02:00 +10°C° 0 mm 2 mps 671 mmHg 73%
    03:00 +10°C° 0 mm 2 mps 671 mmHg 75%
    04:00 +10°C° 0 mm 2 mps 670 mmHg 75%
    05:00 +10°C° 0 mm 2 mps 670 mmHg 75%
    06:00 +9°C° 0 mm 2 mps 670 mmHg 75%
    07:00 +11°C° 0 mm 3 mps 671 mmHg 67%
    08:00 +13°C° 0 mm 3 mps 671 mmHg 60%
    09:00 +16°C° 0 mm 3 mps 672 mmHg 53%
    10:00 +18°C° 0 mm 3 mps 672 mmHg 48%
    11:00 +19°C° 0 mm 3 mps 672 mmHg 43%
    12:00 +21°C° 0 mm 3 mps 672 mmHg 38%
    13:00 +21°C° 0 mm 3 mps 672 mmHg 39%
    14:00 +21°C° 0 mm 3 mps 672 mmHg 39%
    15:00 +21°C° 0 mm 3 mps 672 mmHg 40%
    16:00 +19°C° 0 mm 3 mps 671 mmHg 47%
    17:00 +17°C° 0 mm 2 mps 671 mmHg 55%
    18:00 +15°C° 0 mm 2 mps 670 mmHg 63%
    19:00 +14°C° 0 mm 2 mps 670 mmHg 65%
    20:00 +13°C° 0 mm 2 mps 670 mmHg 67%
    21:00 +13°C° 0 mm 2 mps 671 mmHg 69%
    22:00 +11°C° 0 mm 3 mps 671 mmHg 68%
    23:00 +11°C° 0 mm 3 mps 670 mmHg 68%

    Day after tomorrow, 17 October, Wednesday

    Time Temperature Precipitation Wind Pressure Humidity
    00:00 +11°C° 0 mm 3 mps 670 mmHg 67%
    01:00 +11°C° 0 mm 3 mps 670 mmHg 67%
    02:00 +10°C° 0 mm 3 mps 670 mmHg 67%
    03:00 +10°C° 0 mm 3 mps 670 mmHg 67%
    04:00 +10°C° 0 mm 3 mps 670 mmHg 68%
    05:00 +10°C° 0 mm 3 mps 670 mmHg 68%
    06:00 +9°C° 0 mm 3 mps 670 mmHg 69%
    07:00 +11°C° 0 mm 3 mps 670 mmHg 63%
    08:00 +13°C° 0 mm 3 mps 670 mmHg 57%
    09:00 +16°C° 0 mm 3 mps 671 mmHg 51%
    10:00 +18°C° 0 mm 3 mps 671 mmHg 46%
    11:00 +19°C° 0 mm 3 mps 671 mmHg 41%
    12:00 +21°C° 0 mm 3 mps 671 mmHg 37%
    13:00 +21°C° 0 mm 3 mps 671 mmHg 37%
    14:00 +21°C° 0 mm 3 mps 671 mmHg 37%
    15:00 +21°C° 0 mm 3 mps 670 mmHg 37%
    16:00 +19°C° 0 mm 3 mps 670 mmHg 44%
    17:00 +17°C° 0 mm 3 mps 669 mmHg 52%
    18:00 +15°C° 0 mm 2 mps 669 mmHg 60%
    19:00 +14°C° 0 mm 2 mps 669 mmHg 62%
    20:00 +13°C° 0 mm 2 mps 669 mmHg 64%
    21:00 +13°C° 0 mm 2 mps 669 mmHg 67%
    22:00 +12°C° 0 mm 2 mps 669 mmHg 67%
    23:00 +12°C° 0 mm 2 mps 669 mmHg 68%

    18 October, Thursday

    Time Temperature Precipitation Wind Pressure Humidity
    00:00 +12°C° 0 mm 2 mps 669 mmHg 69%
    01:00 +10°C° 0 mm 2 mps 669 mmHg 69%
    02:00 +10°C° 0 mm 2 mps 669 mmHg 68%
    03:00 +10°C° 0 mm 2 mps 668 mmHg 68%
    04:00 +10°C° 0 mm 2 mps 668 mmHg 67%
    05:00 +10°C° 0 mm 2 mps 668 mmHg 66%
    06:00 +10°C° 0 mm 2 mps 668 mmHg 65%
    07:00 +13°C° 0 mm 2 mps 669 mmHg 58%
    08:00 +16°C° 0 mm 2 mps 669 mmHg 52%
    09:00 +18°C° 0 mm 2 mps 670 mmHg 45%
    10:00 +20°C° 0 mm 2 mps 670 mmHg 41%
    11:00 +21°C° 0 mm 2 mps 670 mmHg 36%
    12:00 +24°C° 0 mm 2 mps 670 mmHg 32%
    13:00 +24°C° 0 mm 2 mps 670 mmHg 32%
    14:00 +24°C° 0 mm 2 mps 670 mmHg 32%
    15:00 +24°C° 0 mm 2 mps 669 mmHg 32%
    16:00 +21°C° 0 mm 2 mps 669 mmHg 39%
    17:00 +19°C° 0 mm 2 mps 669 mmHg 46%
    18:00 +16°C° 0 mm 1 mps 668 mmHg 53%
    19:00 +16°C° 0 mm 1 mps 668 mmHg 54%
    20:00 +15°C° 0 mm 2 mps 668 mmHg 56%
    21:00 +14°C° 0 mm 2 mps 669 mmHg 57%
    22:00 +14°C° 0 mm 2 mps 669 mmHg 57%
    23:00 +14°C° 0 mm 2 mps 669 mmHg 57%

    19 October, Friday

    Time Temperature Precipitation Wind Pressure Humidity
    00:00 +13°C° 0 mm 2 mps 669 mmHg 57%
    01:00 +13°C° 0 mm 2 mps 669 mmHg 58%
    02:00 +13°C° 0 mm 2 mps 668 mmHg 59%
    03:00 +12°C° 0 mm 2 mps 668 mmHg 60%
    04:00 +12°C° 0 mm 2 mps 668 mmHg 61%
    05:00 +12°C° 0 mm 2 mps 668 mmHg 62%
    06:00 +12°C° 0 mm 2 mps 668 mmHg 62%
    07:00 +14°C° 0 mm 2 mps 669 mmHg 57%
    08:00 +16°C° 0 mm 2 mps 669 mmHg 52%
    09:00 +18°C° 0 mm 2 mps 670 mmHg 47%
    10:00 +20°C° 0 mm 2 mps 670 mmHg 43%
    11:00 +21°C° 0 mm 2 mps 670 mmHg 39%
    12:00 +24°C° 0 mm 2 mps 670 mmHg 35%
    13:00 +24°C° 0 mm 2 mps 670 mmHg 35%
    14:00 +24°C° 0 mm 2 mps 669 mmHg 36%
    15:00 +24°C° 0 mm 2 mps 669 mmHg 37%
    16:00 +20°C° 0 mm 2 mps 669 mmHg 46%
    17:00 +19°C° 0 mm 1 mps 668 mmHg 55%
    18:00 +16°C° 0 mm 1 mps 668 mmHg 64%
    19:00 +15°C° 0 mm 1 mps 668 mmHg 66%
    20:00 +15°C° 0 mm 1 mps 668 mmHg 67%
    21:00 +14°C° 0 mm 1 mps 669 mmHg 69%
    22:00 +14°C° 0 mm 2 mps 669 mmHg 69%
    23:00 +14°C° 0 mm 2 mps 669 mmHg 69%

    20 October, Saturday

    Time Temperature Precipitation Wind Pressure Humidity
    00:00 +14°C° 0 mm 2 mps 669 mmHg 69%
    01:00 +13°C° 0 mm 2 mps 668 mmHg 70%
    02:00 +13°C° 0 mm 2 mps 668 mmHg 71%
    03:00 +13°C° 0 mm 2 mps 668 mmHg 71%
    04:00 +13°C° 0 mm 2 mps 668 mmHg 71%
    05:00 +13°C° 0 mm 2 mps 668 mmHg 70%
    06:00 +13°C° 0 mm 2 mps 668 mmHg 70%
    07:00 +14°C° 0 mm 2 mps 668 mmHg 65%
    08:00 +15°C° 0 mm 2 mps 668 mmHg 60%
    09:00 +17°C° 0 mm 2 mps 669 mmHg 56%
    10:00 +18°C° 0.1 mm 2 mps 669 mmHg 52%
    11:00 +19°C° 0.1 mm 2 mps 669 mmHg 48%
    12:00 +21°C° 0.1 mm 2 mps 669 mmHg 45%
    13:00 +20°C° 0.2 mm 2 mps 668 mmHg 47%
    14:00 +20°C° 0.2 mm 2 mps 668 mmHg 50%
    15:00 +20°C° 0.2 mm 1 mps 667 mmHg 52%
    16:00 +19°C° 0.4 mm 1 mps 667 mmHg 59%
    17:00 +16°C° 0.4 mm 1 mps 667 mmHg 67%
    18:00 +14°C° 0.4 mm 0 mps 667 mmHg 74%
    19:00 +13°C° 0.1 mm 0 mps 667 mmHg 75%
    20:00 +13°C° 0.1 mm 0 mps 667 mmHg 77%
    21:00 +12°C° 0.1 mm 0 mps 667 mmHg 78%
    22:00 +13°C° 0 mm 1 mps 667 mmHg 78%
    23:00 +13°C° 0 mm 1 mps 666 mmHg 78%
    Show more